Regional Weather Roundup
Issued by NWS Albany, NY

Home | Current Version | Previous Version | Text Only | Print | Product List | Glossary On
Versions: 1 2 3 4 5 6 7 8 9 10 11 12 13 14 15 16 17 18 19 20 21 22 23 24 25 26 27
000
ASUS41 KALY 312210
RWRALY

NEW YORK STATE HOURLY WEATHER ROUNDUP
NATIONAL WEATHER SERVICE ALBANY NY
600 PM EDT WED AUG 31 2016

NOTE: "FAIR" INDICATES FEW OR NO CLOUDS BELOW 12,000 FEET WITH NO
SIGNIFICANT WEATHER AND/OR NO OBSTRUCTIONS TO VISIBILITY.

NYZ032-033-038>043-046>054-057>066-NYZ062>081-082-084-312300-
EAST


CITY           SKY/WX    TMP DP  RH WIND       PRES   REMARKS
ALBANY         CLOUDY    75  67  76 S6        29.88R
GLENS FALLS    CLOUDY    74  66  76 S6        29.86R
POUGHKEEPSIE   PTSUNNY   78  66  66 CALM      29.88S
NEWBURGH       PTSUNNY   77  70  78 VRB5      29.91F
MONTGOMERY     LGT RAIN  78  69  73 NE5       29.89F
WHITE PLAINS   CLOUDY    81  66  60 S5        29.89F
ISLIP          CLOUDY    79  70  74 S13       29.89S
NEW YORK CITY  CLOUDY    83  68  60 S14       29.87S
CENTRAL PARK   CLOUDY    81  67  62 VRB7      29.90F
$$

NYZ005>009-017-018-044>046-055-056-312300-
CENTRAL


CITY           SKY/WX    TMP DP  RH WIND       PRES   REMARKS
FULTON         PTSUNNY   75  67  76 SW5       29.87F
SYRACUSE       CLOUDY    75  65  70 NW8       29.87S
ROME           CLOUDY    74  65  73 NW8       29.89S
ELMIRA         CLOUDY    75  64  68 W3        29.90S
BINGHAMTON     CLOUDY    69  61  75 SW3       29.93F
MONTICELLO     CLOUDY    72  66  83 CALM      29.95F
$$

NYZ026>034-041>043-087-312300-
NORTH


CITY           SKY/WX    TMP DP  RH WIND       PRES   REMARKS
WATERTOWN      CLOUDY    72  67  84 S9        29.85F
FORT DRUM      NOT AVBL
MASSENA        PTSUNNY   70  66  87 S7        29.82S THUNDER
SARANAC LAKE   CLOUDY    70  63  78 SW8       29.87S
PLATTSBURGH    MOSUNNY   76  67  73 S3        29.80S
$$

NYZ001>004-010>016-019>021-085-312300-
WEST


CITY           SKY/WX    TMP DP  RH WIND       PRES   REMARKS
NIAGARA FALLS  PTSUNNY   73  66  78 SW8       29.89S
BUFFALO        CLOUDY    73  69  87 SW7       29.89F
DUNKIRK        TSTM      71  67  87 NW14      29.92R FOG
JAMESTOWN      CLOUDY    70  66  88 SW6       29.95S
WELLSVILLE     PTSUNNY   69  64  84 SW7       29.97F
ROCHESTER      CLOUDY    79  68  69 W6        29.88S
PENN YAN       PTSUNNY   78  64  61 S6        29.90S
$$

             KEY
       WCI = WIND CHILL INDEX
       VSB = VISIBILITY
       HX  = HEAT INDEX
$$




USA.gov is the U.S. government's official web portal to all federal, state and local government web resources and services.